When you browse on this site, cookies collect data to enhance your experience and personalize the content and advertising you see.
Visit our Privacy Policy to learn more. By continuing to use the site, you agree to this use of cookies and data.
  • In Hungary
  • List of Countries
  • For 7 days
  • Water Temperature
  • Satellite Maps
  • Weather Map
  • News
  • Weather Widgets
  • user-avatar
    Login

    Hourly Weather Mevazor

    Today, 15 December, Saturday

    Time Temperature Precipitation Wind Pressure Humidity
    00:00 +9°C° 0 mm 2 mps 714 mmHg 28%
    01:00 +9°C° 0 mm 2 mps 714 mmHg 28%
    02:00 +9°C° 0 mm 2 mps 714 mmHg 28%
    03:00 +8°C° 0 mm 2 mps 714 mmHg 28%
    04:00 +9°C° 0 mm 3 mps 713 mmHg 27%
    05:00 +8°C° 0 mm 2 mps 713 mmHg 28%
    06:00 +8°C° 0 mm 2 mps 713 mmHg 28%
    07:00 +8°C° 0 mm 2 mps 713 mmHg 28%
    08:00 +10°C° 0 mm 2 mps 713 mmHg 27%
    09:00 +13°C° 0 mm 2 mps 714 mmHg 26%
    10:00 +15°C° 0 mm 1 mps 713 mmHg 25%
    11:00 +15°C° 0 mm 2 mps 713 mmHg 25%
    12:00 +16°C° 0 mm 2 mps 713 mmHg 24%
    13:00 +16°C° 0 mm 2 mps 713 mmHg 24%
    14:00 +15°C° 0 mm 2 mps 713 mmHg 28%
    15:00 +13°C° 0 mm 2 mps 713 mmHg 32%
    16:00 +12°C° 0 mm 2 mps 712 mmHg 36%
    17:00 +10°C° 0 mm 2 mps 713 mmHg 38%
    18:00 +9°C° 0 mm 2 mps 713 mmHg 40%
    19:00 +8°C° 0 mm 2 mps 714 mmHg 42%
    20:00 +8°C° 0 mm 2 mps 714 mmHg 44%
    21:00 +7°C° 0 mm 2 mps 714 mmHg 47%
    22:00 +7°C° 0 mm 2 mps 715 mmHg 49%
    23:00 +7°C° 0 mm 2 mps 715 mmHg 51%

    Tomorrow, 16 December, Sunday

    Time Temperature Precipitation Wind Pressure Humidity
    00:00 +6°C° 0 mm 2 mps 716 mmHg 54%
    01:00 +6°C° 0 mm 2 mps 716 mmHg 56%
    02:00 +6°C° 0 mm 2 mps 716 mmHg 59%
    03:00 +5°C° 0 mm 2 mps 717 mmHg 61%
    04:00 +5°C° 0 mm 2 mps 717 mmHg 64%
    05:00 +5°C° 0 mm 2 mps 718 mmHg 64%
    06:00 +5°C° 0 mm 2 mps 718 mmHg 65%
    07:00 +4°C° 0 mm 2 mps 718 mmHg 65%
    08:00 +7°C° 0 mm 1 mps 719 mmHg 60%
    09:00 +9°C° 0 mm 1 mps 719 mmHg 54%
    10:00 +10°C° 0 mm 1 mps 719 mmHg 49%
    11:00 +11°C° 0 mm 1 mps 719 mmHg 46%
    12:00 +10°C° 0 mm 2 mps 718 mmHg 43%
    13:00 +12°C° 0 mm 2 mps 718 mmHg 40%
    14:00 +10°C° 0 mm 2 mps 717 mmHg 42%
    15:00 +9°C° 0 mm 2 mps 717 mmHg 45%
    16:00 +10°C° 0 mm 1 mps 717 mmHg 47%
    17:00 +8°C° 0 mm 2 mps 716 mmHg 46%
    18:00 +8°C° 0 mm 2 mps 716 mmHg 46%
    19:00 +8°C° 0 mm 2 mps 716 mmHg 45%
    20:00 +8°C° 0 mm 2 mps 716 mmHg 43%
    21:00 +8°C° 0 mm 2 mps 715 mmHg 41%
    22:00 +8°C° 0 mm 2 mps 715 mmHg 39%
    23:00 +8°C° 0 mm 2 mps 715 mmHg 38%

    Day after tomorrow, 17 December, Monday

    Time Temperature Precipitation Wind Pressure Humidity
    00:00 +8°C° 0 mm 2 mps 714 mmHg 36%
    01:00 +8°C° 0 mm 2 mps 714 mmHg 35%
    02:00 +8°C° 0 mm 2 mps 714 mmHg 34%
    03:00 +8°C° 0 mm 2 mps 713 mmHg 34%
    04:00 +8°C° 0 mm 2 mps 713 mmHg 33%
    05:00 +8°C° 0 mm 2 mps 713 mmHg 33%
    06:00 +8°C° 0 mm 2 mps 713 mmHg 32%
    07:00 +8°C° 0 mm 2 mps 713 mmHg 32%
    08:00 +10°C° 0 mm 2 mps 714 mmHg 30%
    09:00 +12°C° 0 mm 2 mps 714 mmHg 28%
    10:00 +14°C° 0 mm 2 mps 714 mmHg 26%
    11:00 +13°C° 0 mm 3 mps 714 mmHg 26%
    12:00 +14°C° 0 mm 3 mps 714 mmHg 26%
    13:00 +14°C° 0 mm 4 mps 714 mmHg 26%
    14:00 +13°C° 0 mm 3 mps 714 mmHg 29%
    15:00 +12°C° 0 mm 3 mps 714 mmHg 33%
    16:00 +12°C° 0 mm 2 mps 714 mmHg 36%
    17:00 +12°C° 0 mm 2 mps 714 mmHg 37%
    18:00 +10°C° 0 mm 2 mps 714 mmHg 38%
    19:00 +9°C° 0 mm 2 mps 714 mmHg 40%
    20:00 +9°C° 0 mm 2 mps 714 mmHg 39%
    21:00 +9°C° 0 mm 2 mps 714 mmHg 39%
    22:00 +8°C° 0 mm 2 mps 714 mmHg 39%
    23:00 +8°C° 0 mm 2 mps 714 mmHg 39%

    18 December, Tuesday

    Time Temperature Precipitation Wind Pressure Humidity
    00:00 +8°C° 0 mm 2 mps 714 mmHg 39%
    01:00 +8°C° 0 mm 2 mps 713 mmHg 39%
    02:00 +8°C° 0 mm 2 mps 713 mmHg 40%
    03:00 +7°C° 0 mm 2 mps 713 mmHg 40%
    04:00 +7°C° 0 mm 2 mps 713 mmHg 41%
    05:00 +7°C° 0 mm 2 mps 714 mmHg 42%
    06:00 +7°C° 0 mm 2 mps 714 mmHg 43%
    07:00 +7°C° 0 mm 2 mps 714 mmHg 44%
    08:00 +8°C° 0 mm 2 mps 714 mmHg 42%
    09:00 +11°C° 0 mm 1 mps 714 mmHg 40%
    10:00 +12°C° 0 mm 1 mps 715 mmHg 37%
    11:00 +13°C° 0 mm 1 mps 714 mmHg 36%
    12:00 +13°C° 0 mm 2 mps 714 mmHg 35%
    13:00 +14°C° 0 mm 2 mps 713 mmHg 34%
    14:00 +13°C° 0 mm 2 mps 713 mmHg 37%
    15:00 +12°C° 0 mm 2 mps 712 mmHg 41%
    16:00 +12°C° 0 mm 2 mps 712 mmHg 44%
    17:00 +10°C° 0 mm 2 mps 712 mmHg 44%
    18:00 +10°C° 0 mm 2 mps 712 mmHg 44%
    19:00 +10°C° 0 mm 2 mps 712 mmHg 44%
    20:00 +10°C° 0 mm 2 mps 711 mmHg 43%
    21:00 +10°C° 0 mm 2 mps 711 mmHg 42%
    22:00 +10°C° 0 mm 2 mps 711 mmHg 41%
    23:00 +10°C° 0 mm 2 mps 710 mmHg 40%

    19 December, Wednesday

    Time Temperature Precipitation Wind Pressure Humidity
    00:00 +10°C° 0 mm 2 mps 710 mmHg 39%
    01:00 +10°C° 0 mm 2 mps 710 mmHg 38%
    02:00 +11°C° 0 mm 1 mps 710 mmHg 38%
    03:00 +10°C° 0 mm 1 mps 710 mmHg 37%
    04:00 +10°C° 0 mm 1 mps 709 mmHg 37%
    05:00 +10°C° 0 mm 1 mps 710 mmHg 37%
    06:00 +10°C° 0 mm 1 mps 710 mmHg 37%
    07:00 +10°C° 0 mm 1 mps 710 mmHg 36%
    08:00 +11°C° 0 mm 1 mps 711 mmHg 36%
    09:00 +12°C° 0 mm 1 mps 711 mmHg 35%
    10:00 +12°C° 0 mm 1 mps 712 mmHg 34%
    11:00 +12°C° 0 mm 2 mps 712 mmHg 35%
    12:00 +12°C° 0 mm 2 mps 711 mmHg 37%
    13:00 +12°C° 0 mm 2 mps 711 mmHg 39%
    14:00 +12°C° 0.1 mm 2 mps 712 mmHg 44%
    15:00 +10°C° 0.1 mm 2 mps 712 mmHg 50%
    16:00 +9°C° 0.1 mm 2 mps 713 mmHg 56%
    17:00 +8°C° 0.2 mm 2 mps 713 mmHg 60%
    18:00 +8°C° 0.2 mm 2 mps 714 mmHg 65%
    19:00 +7°C° 0.2 mm 2 mps 714 mmHg 70%
    20:00 +7°C° 0.3 mm 2 mps 715 mmHg 73%
    21:00 +6°C° 0.3 mm 2 mps 715 mmHg 75%
    22:00 +6°C° 0.3 mm 2 mps 715 mmHg 77%
    23:00 +6°C° 0.4 mm 2 mps 715 mmHg 79%

    20 December, Thursday

    Time Temperature Precipitation Wind Pressure Humidity
    00:00 +5°C° 0.4 mm 2 mps 715 mmHg 80%
    01:00 +5°C° 0.4 mm 2 mps 715 mmHg 82%
    02:00 +5°C° 0.4 mm 2 mps 716 mmHg 82%
    03:00 +5°C° 0.4 mm 2 mps 716 mmHg 83%
    04:00 +5°C° 0.4 mm 2 mps 716 mmHg 83%
    05:00 +6°C° 0.3 mm 1 mps 716 mmHg 83%
    06:00 +5°C° 0.3 mm 1 mps 716 mmHg 83%
    07:00 +5°C° 0.3 mm 1 mps 717 mmHg 83%
    08:00 +6°C° 0.1 mm 1 mps 717 mmHg 80%
    09:00 +5°C° 0.1 mm 2 mps 717 mmHg 76%
    10:00 +6°C° 0.1 mm 2 mps 717 mmHg 73%
    11:00 +7°C° 0.1 mm 2 mps 717 mmHg 70%
    12:00 +7°C° 0.1 mm 2 mps 716 mmHg 68%
    13:00 +8°C° 0.1 mm 2 mps 716 mmHg 65%
    14:00 +7°C° 0 mm 2 mps 715 mmHg 66%
    15:00 +8°C° 0 mm 1 mps 715 mmHg 68%
    16:00 +8°C° 0 mm 1 mps 715 mmHg 69%
    17:00 +7°C° 0 mm 1 mps 715 mmHg 69%
    18:00 +6°C° 0 mm 2 mps 715 mmHg 69%
    19:00 +5°C° 0 mm 2 mps 715 mmHg 69%
    20:00 +5°C° 0 mm 2 mps 714 mmHg 67%
    21:00 +5°C° 0 mm 2 mps 714 mmHg 66%
    22:00 +5°C° 0 mm 2 mps 714 mmHg 65%
    23:00 +5°C° 0 mm 2 mps 713 mmHg 63%
    Show more